www.pogodaiklimat.ru

Погода и климат >> Архив погоды >> Мексика >> Puerto Angel


ПОГОДА в Puerto Angel

  • Прогноз погоды в Puerto Angel
  • Монитор погоды в Puerto Angel
  • Климат города

АРХИВ ПОГОДЫ в Puerto Angel

Время (UTC), дата Ветер
(напр.,м/с)
 
Видим.   Явления Облачность Т
(С)
Тd
(С)
f
(%)
Тe
(С)
Тes
(С)
Комфортность P
(гПа)
Po
(гПа)
Тmin
(С)
Tmax
(С)
R
(мм)
R24
(мм)
S
(см)
06 8.08 С 3 20 км 1/1 750 м
[Cb cap]
+26.8 +23.8 84 +37 +37 очень
душно
1013.5 1008.6 +23.4 +33.4
09 8.08 С 3 20 км 6/1 750 м
[Cb cap Cs]
+27.0 +24.0 84 +37 +37 очень
душно
1012.4 1007.5
12 8.08 СЗ 3 20 км 5/0
[Ac und Cs]
+26.8 +22.6 78 +35 +35 очень
душно
1012.0 1007.1 +26.0 +33.4
15 8.08 С 2 30 км 4/1 600 м
[Cu med, cong Cs]
+29.4 +24.5 75 +42 +49 опасность
перегрева
1012.8 1007.9
18 8.08 СЗ 2 30 км 5/1 600 м
[Cu med, cong Ac As Cs]
+32.4 +25.8 68 +48 +63 опасность
перегрева
1012.5 1007.6 +26.0 +32.8
21 8.08 З 4 30 км 5/1 600 м
[Cu med, cong Ac As Cs]
+32.2 +25.6 68 +47 +54 опасность
перегрева
1011.9 1007.0
00 9.08 СВ 2 30 км 10/1 600 м
[Cu med, cong Ac As]
+30.6 +25.8 76 +46 +46 опасность
перегрева
1012.0 1007.2 +26.0 +33.4
03 9.08 СЗ 1 30 км {дождь} 8/3 600 м
[Cb cap Ac und]
+27.2 +25.0 88 +39 +39 очень
душно
1013.1 1008.2 6
06 9.08 С 1 30 км 1/1 600 м
[Cu med, cong]
+25.6 +24.0 91 +35 +35 очень
душно
1013.6 1008.8 +25.4 +33.4
09 9.08 СВ 1 30 км 5/1 600 м
[Cu med, cong Cs]
+25.2 +23.0 88 +34 +34 очень
душно
1012.5 1007.6
12 9.08 С 1 30 км 6/1 600 м
[Cu med, cong Cs]
+24.2 +22.0 88 +31 +31 очень
душно
1011.2 1006.3 +23.4 +33.4
15 9.08 ЮЗ 1 30 км 8/1 600 м
[Cu med, cong Cs]
+27.6 +23.5 78 +37 +46 очень
душно
1011.8 1006.9
18 9.08 В 1 30 км 9/1 600 м
[Cu med, cong Cs]
+24.5 +21 +40 комфорт 1012.9 1008.0 +23.4 +32.6
21 9.08 ЮЗ 1 30 км 8/1 600 м
[Cu med, cong Ac und Cs]
+32.0 +25.3 68 +46 +55 опасность
перегрева
1011.1 1006.2
00 10.08 З 1 30 км 8/1 600 м
[Cu med, cong Cs]
+32.0 +25.3 68 +46 +47 опасность
перегрева
1010.6 1005.7 +23.4 +33.0
03 10.08 С 2 20 км 1/0
[Cs]
+28.0 +25.6 87 +41 +41 опасность
перегрева
1014.2 1009.3
06 10.08 С 2 20 км 1/0
[Cs]
+26.8 +24.1 85 +37 +37 очень
душно
1014.8 1009.9 +23.4 +33.0
09 10.08 С 3 20 км 1/0
[Cs]
+25.4 +22.3 83 +33 +33 очень
душно
1013.5 1008.6
12 10.08 С 3 20 км 3/0
[Cs]
+24.6 +21.8 84 +31 +31 очень
душно
1013.2 1008.3 +24.0 +33.0
15 10.08 С 2 30 км ясно +29.4 +24.0 73 +41 +50 опасность
перегрева
1013.6 1008.6
18 10.08 ЮВ 2 30 км 1/1 600 м
[Cu med, cong]
+32.6 +26.0 68 +48 +68 опасность
перегрева
1014.1 1009.1 +24.0 +33.4
21 10.08 Ю 2 30 км 1/1 600 м
[Cu med, cong]
+33.0 +26.0 67 +49 +62 опасность
перегрева
1012.6 1007.8
06 11.08 ЮЗ 2 30 км ясно +27.0 +24.3 85 +38 +38 очень
душно
1014.9 1010.0 +24.0 +34.4
09 11.08 СВ 2 30 км ясно +26.0 +23.2 85 +35 +35 очень
душно
1014.5 1009.6
12 11.08 С 2 30 км ясно +25.0 +21.6 81 +32 +32 очень
душно
1014.4 1009.4 +24.0 +34.4
15 11.08 С 2 30 км ясно +27.0 +22.6 77 +36 +45 очень
душно
1014.4 1009.4
18 11.08 Ю 2 30 км 1/1 600 м
[Cu med, cong]
+31.6 +25.5 70 +46 +66 опасность
перегрева
1014.6 1009.7 +24.0 +32.6
21 11.08 Ю 2 30 км 1/1 600 м
[Cu med, cong]
+33.0 +27.0 71 +51 +64 опасность
перегрева
1013.6 1008.7
00 12.08 ЮЗ 2 30 км 1/1 600 м
[Cu med, cong]
+32.0 +25.3 68 +46 +47 опасность
перегрева
1012.8 1007.9 +24.0 +34.4
03 12.08 СЗ 2 20 км 8/3 600 м
[Cb cap Cs]
+29.0 +25.2 80 +42 +42 опасность
перегрева
1014.3 1009.5
06 12.08 СЗ 3 20 км 1/0
[Cs]
+27.0 +25.1 89 +39 +39 очень
душно
1015.0 1010.1 +24.0 +34.4
12 12.08 С 3 20 км 3/1 750 м
[Cb cap Ac und]
+26.8 +24.1 85 +37 +37 очень
душно
1014.6 1009.6 +26.0 +34.4
15 12.08 СВ 3 20 км 6/5 600 м
[Cb cap Cs]
+26.4 +23.4 84 +36 +40 очень
душно
1017.1 1012.2
18 12.08 ЮЗ 4 20 км 3/1 600 м
[Cu med, cong Ac trans]
+33.2 +25.2 63 +47 +59 опасность
перегрева
1014.6 1009.6 +26.0 +34.2
12 13.08 ЮВ 2 30 км 10/4 600 м
[Cb cap Ac und]
+25.2 +23.5 90 +34 +34 очень
душно
1014.7 1009.8 +24.6 +34.2
15 13.08 СВ 2 30 км 10/1 600 м
[Cu med, cong Ac trans Cs]
+26.0 +23.2 85 +35 +39 очень
душно
1016.1 1011.1
18 13.08 В 1 30 км 9/1 600 м
[Cu med, cong Ac trans Cs]
+27.8 +22.8 74 +37 +50 очень
душно
1017.0 1012.0 +24.6 +30.8
21 13.08 Ю 1 30 км 9/1 600 м
[Cu med, cong Cs]
+31.2 +23.3 63 +42 +54 опасность
перегрева
1015.1 1010.2
00 14.08 ЮЗ 1 30 км 9/1 600 м
[Cu med, cong Ac trans Cs]
+29.4 +23.4 70 +40 +40 очень
душно
1013.3 1008.4 +24.6 +32.0
03 14.08 СВ 2 30 км 4/1 600 м
[Cu med, cong Ac As]
+26.0 +23.2 85 +35 +35 очень
душно
1013.9 1009.0
06 14.08 С 3 30 км 5/1 600 м
[Cu med, cong Ac As]
+25.6 +23.1 86 +34 +34 очень
душно
1015.4 1010.5 +24.6 +32.0
12 14.08 С 3 30 км 10/1 600 м
[Cu med, cong Ac As]
+25.0 +22.5 86 +33 +33 очень
душно
1014.3 1009.3 +24.2 +32.0
15 14.08 С 1 30 км 5/1 600 м
[Cu med, cong Ac As Cs]
+30.2 +24.2 70 +42 +50 опасность
перегрева
1014.8 1009.9
18 14.08 СЗ 3 30 км 4/1 600 м
[Cu med, cong Cs]
+32.2 +25.8 69 +47 +63 опасность
перегрева
1014.5 1009.5 +24.2 +32.4
21 14.08 СЗ 3 30 км 5/1 600 м
[Cu med, cong Ac As Cs]
+32.2 +25.3 67 +46 +55 опасность
перегрева
1013.4 1008.6
00 15.08 СВ 2 30 км 8/1 600 м
[Cu med, cong Ac As Cs]
+31.0 +24.2 67 +43 +43 опасность
перегрева
1013.1 1008.2 +24.2 +32.6
03 15.08 С 3 20 км 1/0
[Cs]
+26.4 +22.5 79 +35 +35 очень
душно
1013.9 1009.1

 

Местоположение метеостанции Puerto Angel (Мексика): широта 15.68 долгота -96.48 высота над уровнем моря 46 м.

В архиве по умолчанию представлена погода в Puerto Angel за последнюю неделю. Архивные данные за месяц целиком и за предыдущие месяцы, начиная с января 2011 года, Вы можете получить, выбрав интересующий диапазон дат из раскрывающегося списка и нажав кнопку "Ввод!".


*Определитесь, кто Вы:
робот инопланетянин человек

Внимание! Время в таблицах - всемирное. Для получения местного времени необходимо прибавить поправку, которая в Puerto Angel равна -6 ч.

Смотрите также архив погоды в соседних городах и на ближайших метеорологических станциях:

Погода в Salina Cruz (Мексика) (149 км)
Погода в Oaxaca (Мексика) (154 км)
Погода в Huajuapan De Leon (Мексика) (273 км)
Погода в Arriaga (Мексика) (283 км)
Погода в Coatzacoalcos (Мексика) (350 км)
Погода в Orizaba (Мексика) (359 км)
Погода в Cordoba-In-Veracruz (Мексика) (361 км)
Погода в Tuxtla Gutierrez (Мексика) (377 км)
Погода в Chilpancingo (Мексика) (383 км)
Погода в Verakruz (Мексика) (388 км)

Пояснения к столбцам:

Ветер - указаны скорость ветра в м/с - средняя за 10 мин, порывы в срок и между сроками (в фигурных скобках) и направление, откуда дует ветер: С - северный, СВ - северо-восточный, В - восточный, ЮВ - юго-восточный, Ю - южный, ЮЗ - юго-западный, З - западный, СЗ - северо-западный.
Видимость - горизонтальная дальность видимости в метрах или километрах. При видимости от 1 до 10 км при отсутствии осадков обычно наблюдается дымка, при ухудшении видимости до 1 км и менее - туман. В сухую погоду видимость может ухудшаться дымом, пылью или мглою.
Явления - указаны атмосферные явления, наблюдавшиеся в срок или в последний час перед сроком; фигурными скобками обозначены явления, наблюдавшиеся между сроками (за 1-3 часа до срока); квадратными скобками обозначены град или гололедные отложения с указанием их диаметра в мм.
Облачность - указаны через наклонную черту общая и нижняя облачность в баллах и высота нижней границы облаков в метрах; квадратными скобками обозначены формы облаков: Ci - перистые, Cs - перисто-слоистые, Cc - перисто-кучевые, Ac - высококучевые, As - высокослоистые, Sc - слоисто-кучевые, Ns - слоисто-дождевые, Cu - кучевые, Cb - кучево-дождевые. Подробнее классификацию облаков см. в Атласе облаков (PDF).
T - Температура воздуха - температура, измеренная на высоте 2 м над землей.
Td - Температура точки росы - температура, при понижении до которой содержащийся в воздухе водяной пар достигнет насыщения.
f - Относительная влажность воздуха - влажноcть воздуха, измеренная на высоте 2 м над землей.
Te - Эффективная температура - температура, которую ощущает одетый по сезону человек в тени. Характеристика душности погоды. При расчете учитывается влияние влажности воздуха и скорости ветра на теплоощущения человека.
Tes - Эффективная температура на солнце - температура, которую ощущает человек, с поправкой на солнечный нагрев. Характеристика знойности погоды. Зависит от высоты солнца над горизонтом, облачности и скорости ветра. Ночью, в пасмурную погоду, а также при ветре 12 м/с и более поправка равна нулю.
P - Атмосферное давление - приведенное к уровню моря атмосферное давление.
Po - Атмосферное давление - измеренное на уровне метеостанции атмосферное давление.
Tmin - Минимальная температура - минимум температуры воздуха на высоте 2 м над землей.
Tmax - Максимальная температура - максимум температуры воздуха на высоте 2 м над землей.
R - Количество осадков - Количество выпавших осадков за период времени, мм. При наведении курсора мыши на число - период времени, за который выпало указанное количество осадков.
R24 - Количество осадков - Количество выпавших осадков за 24 часа, мм.
S - Снежный покров - Высота снежного покрова, см. При наведении курсора мыши на число - состояние снежного покрова и степень покрытия местности в баллах.